Content
SEND FEEDBACK

Daily
Averages
Monthly
Summary
United States of America

WUNPOST, CALIFORNIA


Home > North America > United States > California
Elevation: 440 feet     Latitude: 36 01N     Longitude: 120 54W

WEATHER
 
SELECT A DAY
Number of Records: 189,774;   Date Range: 1/1/95 - 11/26/14
 
SHARE

PRINT THIS DATA

[ ← Previous Day ]
WEATHER ALMANAC - JANUARY 30, 2013
[ Next Day → ]
[ °C ]   °F
Weather ElementAverageHighLow
Temperature47.2 °F64.9 °F (2:53 pm)32 °F (6:53 am)
Dewpoint36.7 °F42.1 °F (6:53 pm)30 °F (6:53 am)
Humidity71 %100 % (7:53 am)37 % (2:53 pm)
Barometer30.29 in30.37 in (9:53 am)30.24 in (4:53 pm)
Wind Speed2.4 mph8.1 mph (6:53 pm)
Weather ElementAverage
Visibility9.6 mi
Wind DirectionNNE (35.9 °)

Weather ElementTotal
Precipitation---
Heating Degree Days16.6 (Base 65)
Averaged from 22 records on January 30, 2013
WEATHER CONDITIONS BREAKOUT
WIND DIRECTION BREAKOUT
WEATHER BY HOUR - JANUARY 30, 2013
[ °C ]   °F
Local TimeTemperatureDewpointHumidityBarometerVisibilityWind DirectionWind SpeedGust SpeedPrecipitationEventsConditions
1:53 AM37.0 °F34.0 °F89 %30.28 in10.0 miCalmClear
2:53 AM36.0 °F34.0 °F93 %30.29 in10.0 miENE (60°)4.6 mphClear
3:53 AM36.0 °F33.1 °F89 %30.29 in10.0 miCalmClear
4:53 AM36.0 °F33.1 °F89 %30.29 in8.0 miENE (60°)6.9 mphClear
5:53 AM34.0 °F32.0 °F92 %30.30 in9.0 miCalmClear
6:53 AM32.0 °F30.0 °F92 %30.32 in8.0 miNE (40°)4.6 mphClear
7:53 AM35.1 °F35.1 °F100 %30.35 in8.0 miCalmClear
8:53 AM39.0 °F36.0 °F89 %30.36 in10.0 miNW (320°)4.6 mphClear
9:53 AM46.0 °F37.9 °F73 %30.37 in10.0 miCalmClear
10:53 AM51.1 °F39.0 °F63 %30.37 in10.0 miCalmClear
12:53 PM60.1 °F37.9 °F44 %30.30 in10.0 miVariable3.5 mphClear
1:53 PM63.0 °F37.9 °F40 %30.27 in10.0 miNorth (10°)5.8 mphClear
2:53 PM64.9 °F37.9 °F37 %30.26 in10.0 miCalmClear
3:53 PM64.9 °F37.9 °F37 %30.25 in10.0 miCalmClear
4:53 PM64.9 °F37.9 °F37 %30.24 in10.0 miCalmClear
5:53 PM59.0 °F39.9 °F49 %30.24 in10.0 miCalmClear
6:53 PM51.1 °F42.1 °F71 %30.26 in10.0 miEast (100°)8.1 mphClear
7:53 PM50.0 °F39.9 °F68 %30.27 in10.0 miEast (100°)8.1 mphClear
8:53 PM48.9 °F39.0 °F69 %30.27 in10.0 miEast (100°)5.8 mphClear
9:53 PM46.9 °F39.0 °F74 %30.29 in10.0 miCalmClear
10:53 PM41.0 °F36.0 °F82 %30.29 in9.0 miCalmClear
11:53 PM41.0 °F37.0 °F86 %30.29 in10.0 miCalmClear
Hourly data recorded from KPRB, located miles away from Wunpost, California







STORIES FROM OUR PARTNERS